Year,Month,Day,Hour,Minute,Value (Times are PST for temperature in C)
2013,04,10,00,00,6.40
2013,04,10,00,01,6.40
2013,04,10,00,02,6.40
2013,04,10,00,03,6.40
2013,04,10,00,04,6.40
2013,04,10,00,05,6.40
2013,04,10,00,06,6.40
2013,04,10,00,07,6.40
2013,04,10,00,08,6.40
2013,04,10,00,09,6.40
2013,04,10,00,10,6.40
2013,04,10,00,11,6.40
2013,04,10,00,12,6.40
2013,04,10,00,13,6.40
2013,04,10,00,14,6.40
2013,04,10,00,15,6.40
2013,04,10,00,16,6.40
2013,04,10,00,17,6.40
2013,04,10,00,18,6.40
2013,04,10,00,19,6.40
2013,04,10,00,20,6.40
2013,04,10,00,21,6.40
2013,04,10,00,22,6.40
2013,04,10,00,23,6.40
2013,04,10,00,24,6.40
2013,04,10,00,25,6.40
2013,04,10,00,26,6.40
2013,04,10,00,27,6.40
2013,04,10,00,28,6.40
2013,04,10,00,29,6.40
2013,04,10,00,30,6.40
2013,04,10,00,31,6.40
2013,04,10,00,32,6.40
2013,04,10,00,33,6.40
2013,04,10,00,34,6.40
2013,04,10,00,35,6.40
2013,04,10,00,36,6.40
2013,04,10,00,37,6.40
2013,04,10,00,38,6.40
2013,04,10,00,39,6.40
2013,04,10,00,40,6.40
2013,04,10,00,41,6.40
2013,04,10,00,42,6.40
2013,04,10,00,43,6.40
2013,04,10,00,44,6.40
2013,04,10,00,45,6.40
2013,04,10,00,46,6.40
2013,04,10,00,47,6.40
2013,04,10,00,48,6.40
2013,04,10,00,49,6.40
2013,04,10,00,50,6.40
2013,04,10,00,51,6.40
2013,04,10,00,52,6.40
2013,04,10,00,53,6.40
2013,04,10,00,54,6.40
2013,04,10,00,55,6.40
2013,04,10,00,56,6.40
2013,04,10,00,57,6.50
2013,04,10,00,58,6.50
2013,04,10,00,59,6.50
2013,04,10,01,00,6.50
2013,04,10,01,01,6.50
2013,04,10,01,02,6.50
2013,04,10,01,03,6.50
2013,04,10,01,04,6.50
2013,04,10,01,05,6.50
2013,04,10,01,06,6.50
2013,04,10,01,07,6.50
2013,04,10,01,08,6.50
2013,04,10,01,09,6.50
2013,04,10,01,10,6.50
2013,04,10,01,11,6.50
2013,04,10,01,12,6.50
2013,04,10,01,13,6.50
2013,04,10,01,14,6.50
2013,04,10,01,15,6.50
2013,04,10,01,16,6.50
2013,04,10,01,17,6.50
2013,04,10,01,18,6.50
2013,04,10,01,19,6.50
2013,04,10,01,20,6.50
2013,04,10,01,21,6.50
2013,04,10,01,22,6.50
2013,04,10,01,23,6.50
2013,04,10,01,24,6.50
2013,04,10,01,25,6.50
2013,04,10,01,26,6.50
2013,04,10,01,27,6.50
2013,04,10,01,28,6.50
2013,04,10,01,29,6.50
2013,04,10,01,30,6.50
2013,04,10,01,31,6.50
2013,04,10,01,32,6.60
2013,04,10,01,33,6.60
2013,04,10,01,34,6.60
2013,04,10,01,35,6.60
2013,04,10,01,36,6.60
2013,04,10,01,37,6.60
2013,04,10,01,38,6.50
2013,04,10,01,39,6.50
2013,04,10,01,40,6.50
2013,04,10,01,41,6.60
2013,04,10,01,42,6.50
2013,04,10,01,43,6.60
2013,04,10,01,44,6.60
2013,04,10,01,45,6.60
2013,04,10,01,46,6.60
2013,04,10,01,47,6.60
2013,04,10,01,48,6.60
2013,04,10,01,49,6.60
2013,04,10,01,50,6.60
2013,04,10,01,51,6.60
2013,04,10,01,52,6.60
2013,04,10,01,53,6.60
2013,04,10,01,54,6.60
2013,04,10,01,55,6.60
2013,04,10,01,56,6.60
2013,04,10,01,57,6.60
2013,04,10,01,58,6.60
2013,04,10,01,59,6.60
2013,04,10,02,00,6.60
2013,04,10,02,01,6.60
2013,04,10,02,02,6.60
2013,04,10,02,03,6.60
2013,04,10,02,04,6.60
2013,04,10,02,05,6.60
2013,04,10,02,06,6.60
2013,04,10,02,07,6.60
2013,04,10,02,08,6.60
2013,04,10,02,09,6.60
2013,04,10,02,10,6.60
2013,04,10,02,11,6.60
2013,04,10,02,12,6.60
2013,04,10,02,13,6.60
2013,04,10,02,14,6.60
2013,04,10,02,15,6.60
2013,04,10,02,16,6.60
2013,04,10,02,17,6.60
2013,04,10,02,18,6.60
2013,04,10,02,19,6.60
2013,04,10,02,20,6.60
2013,04,10,02,21,6.60
2013,04,10,02,22,6.60
2013,04,10,02,23,6.60
2013,04,10,02,24,6.60
2013,04,10,02,25,6.60
2013,04,10,02,26,6.60
2013,04,10,02,27,6.60
2013,04,10,02,28,6.60
2013,04,10,02,29,6.60
2013,04,10,02,30,6.60
2013,04,10,02,31,6.60
2013,04,10,02,32,6.60
2013,04,10,02,33,6.60
2013,04,10,02,34,6.60
2013,04,10,02,35,6.60
2013,04,10,02,36,6.60
2013,04,10,02,37,6.60
2013,04,10,02,38,6.60
2013,04,10,02,39,6.60
2013,04,10,02,40,6.60
2013,04,10,02,41,6.60
2013,04,10,02,42,6.60
2013,04,10,02,43,6.60
2013,04,10,02,44,6.60
2013,04,10,02,45,6.60
2013,04,10,02,46,6.60
2013,04,10,02,47,6.60
2013,04,10,02,48,6.60
2013,04,10,02,49,6.60
2013,04,10,02,50,6.60
2013,04,10,02,51,6.60
2013,04,10,02,52,6.60
2013,04,10,02,53,6.60
2013,04,10,02,54,6.60
2013,04,10,02,55,6.60
2013,04,10,02,56,6.60
2013,04,10,02,57,6.60
2013,04,10,02,58,6.60
2013,04,10,02,59,6.60
2013,04,10,03,00,6.60
2013,04,10,03,01,6.60
2013,04,10,03,02,6.60
2013,04,10,03,03,6.60
2013,04,10,03,06,6.60
2013,04,10,03,07,6.50
2013,04,10,03,08,6.50
2013,04,10,03,09,6.60
2013,04,10,03,10,6.50
2013,04,10,03,11,6.50
2013,04,10,03,12,6.60
2013,04,10,03,13,6.60
2013,04,10,03,14,6.60
2013,04,10,03,15,6.60
2013,04,10,03,16,6.60
2013,04,10,03,17,6.60
2013,04,10,03,18,6.60
2013,04,10,03,19,6.60
2013,04,10,03,20,6.60
2013,04,10,03,21,6.60
2013,04,10,03,22,6.60
2013,04,10,03,23,6.60
2013,04,10,03,24,6.60
2013,04,10,03,25,6.60
2013,04,10,03,26,6.60
2013,04,10,03,27,6.60
2013,04,10,03,28,6.60
2013,04,10,03,29,6.60
2013,04,10,03,30,6.60
2013,04,10,03,31,6.60
2013,04,10,03,32,6.60
2013,04,10,03,33,6.60
2013,04,10,03,34,6.60
2013,04,10,03,35,6.60
2013,04,10,03,36,6.60
2013,04,10,03,37,6.60
2013,04,10,03,38,6.60
2013,04,10,03,39,6.60
2013,04,10,03,40,6.60
2013,04,10,03,41,6.60
2013,04,10,03,42,6.60
2013,04,10,03,43,6.60
2013,04,10,03,44,6.60
2013,04,10,03,45,6.60
2013,04,10,03,46,6.60
2013,04,10,03,47,6.60
2013,04,10,03,48,6.60
2013,04,10,03,49,6.60
2013,04,10,03,50,6.60
2013,04,10,03,51,6.60
2013,04,10,03,52,6.60
2013,04,10,03,53,6.60
2013,04,10,03,54,6.60
2013,04,10,03,55,6.60
2013,04,10,03,56,6.60
2013,04,10,03,57,6.60
2013,04,10,03,58,6.60
2013,04,10,03,59,6.60
2013,04,10,04,00,6.60
2013,04,10,04,01,6.60
2013,04,10,04,02,6.60
2013,04,10,04,03,6.60
2013,04,10,04,04,6.60
2013,04,10,04,05,6.60
2013,04,10,04,06,6.60
2013,04,10,04,07,6.60
2013,04,10,04,08,6.60
2013,04,10,04,09,6.60
2013,04,10,04,10,6.60
2013,04,10,04,11,6.60
2013,04,10,04,12,6.60
2013,04,10,04,13,6.60
2013,04,10,04,14,6.60
2013,04,10,04,15,6.60
2013,04,10,04,16,6.60
2013,04,10,04,17,6.60
2013,04,10,04,18,6.60
2013,04,10,04,19,6.60
2013,04,10,04,20,6.60
2013,04,10,04,21,6.60
2013,04,10,04,22,6.60
2013,04,10,04,23,6.60
2013,04,10,04,24,6.60
2013,04,10,04,25,6.60
2013,04,10,04,26,6.60
2013,04,10,04,27,6.70
2013,04,10,04,28,6.60
2013,04,10,04,29,6.60
2013,04,10,04,30,6.70
2013,04,10,04,31,6.70
2013,04,10,04,32,6.60
2013,04,10,04,33,6.70
2013,04,10,04,34,6.70
2013,04,10,04,35,6.70
2013,04,10,04,36,6.70
2013,04,10,04,37,6.70
2013,04,10,04,38,6.70
2013,04,10,04,39,6.70
2013,04,10,04,40,6.70
2013,04,10,04,41,6.70
2013,04,10,04,42,6.60
2013,04,10,04,43,6.70
2013,04,10,04,44,6.70
2013,04,10,04,45,6.70
2013,04,10,04,46,6.70
2013,04,10,04,47,6.70
2013,04,10,04,48,6.70
2013,04,10,04,49,6.70
2013,04,10,04,50,6.70
2013,04,10,04,51,6.70
2013,04,10,04,52,6.70
2013,04,10,04,53,6.70
2013,04,10,04,54,6.70
2013,04,10,04,55,6.70
2013,04,10,04,56,6.70
2013,04,10,04,57,6.70
2013,04,10,04,58,6.70
2013,04,10,04,59,6.70
2013,04,10,05,00,6.70
2013,04,10,05,01,6.70
2013,04,10,05,02,6.70
2013,04,10,05,03,6.70
2013,04,10,05,04,6.70
2013,04,10,05,05,6.70
2013,04,10,05,06,6.70
2013,04,10,05,07,6.70
2013,04,10,05,08,6.70
2013,04,10,05,09,6.70
2013,04,10,05,10,6.70
2013,04,10,05,11,6.70
2013,04,10,05,12,6.70
2013,04,10,05,13,6.70
2013,04,10,05,14,6.70
2013,04,10,05,15,6.70
2013,04,10,05,16,6.70
2013,04,10,05,17,6.70
2013,04,10,05,18,6.70
2013,04,10,05,19,6.70
2013,04,10,05,20,6.70
2013,04,10,05,21,6.70
2013,04,10,05,22,6.70
2013,04,10,05,23,6.70
2013,04,10,05,24,6.70
2013,04,10,05,25,6.70
2013,04,10,05,26,6.70
2013,04,10,05,27,6.70
2013,04,10,05,28,6.70
2013,04,10,05,29,6.70
2013,04,10,05,30,6.70
2013,04,10,05,31,6.70
2013,04,10,05,32,6.70
2013,04,10,05,33,6.70
2013,04,10,05,34,6.70
2013,04,10,05,35,6.70
2013,04,10,05,36,6.70
2013,04,10,05,37,6.70
2013,04,10,05,38,6.70
2013,04,10,05,39,6.70
2013,04,10,05,40,6.70
2013,04,10,05,41,6.70
2013,04,10,05,42,6.80
2013,04,10,05,43,6.80
2013,04,10,05,44,6.80
2013,04,10,05,45,6.80
2013,04,10,05,46,6.80
2013,04,10,05,47,6.80
2013,04,10,05,48,6.80
2013,04,10,05,49,6.80
2013,04,10,05,50,6.80
2013,04,10,05,51,6.80
2013,04,10,05,52,6.80
2013,04,10,05,53,6.80
2013,04,10,05,54,6.80
2013,04,10,05,55,6.80
2013,04,10,05,56,6.80
2013,04,10,05,57,6.80
2013,04,10,05,58,6.80
2013,04,10,05,59,6.80
2013,04,10,06,00,6.80
2013,04,10,06,01,6.80
2013,04,10,06,02,6.80
2013,04,10,06,03,6.80
2013,04,10,06,04,6.80
2013,04,10,06,05,6.80
2013,04,10,06,06,6.80
2013,04,10,06,07,6.80
2013,04,10,06,08,6.80
2013,04,10,06,09,6.80
2013,04,10,06,10,6.80
2013,04,10,06,11,6.80
2013,04,10,06,12,6.80
2013,04,10,06,13,6.80
2013,04,10,06,14,6.80
2013,04,10,06,15,6.80
2013,04,10,06,16,6.80
2013,04,10,06,17,6.80
2013,04,10,06,18,6.80
2013,04,10,06,19,6.80
2013,04,10,06,20,6.80
2013,04,10,06,21,6.80
2013,04,10,06,22,6.80
2013,04,10,06,23,6.80
2013,04,10,06,24,6.80
2013,04,10,06,25,6.90
2013,04,10,06,26,6.90
2013,04,10,06,27,6.90
2013,04,10,06,28,6.90
2013,04,10,06,29,6.90
2013,04,10,06,30,6.90
2013,04,10,06,31,6.90
2013,04,10,06,32,6.90
2013,04,10,06,33,6.90
2013,04,10,06,34,6.90
2013,04,10,06,35,6.90
2013,04,10,06,36,6.90
2013,04,10,06,37,6.90
2013,04,10,06,38,6.90
2013,04,10,06,39,6.90
2013,04,10,06,40,6.90
2013,04,10,06,41,6.90
2013,04,10,06,42,6.90
2013,04,10,06,43,6.90
2013,04,10,06,44,7.00
2013,04,10,06,45,7.00
2013,04,10,06,46,7.00
2013,04,10,06,47,7.00
2013,04,10,06,48,7.00
2013,04,10,06,49,7.00
2013,04,10,06,50,7.00
2013,04,10,06,51,7.00
2013,04,10,06,52,7.00
2013,04,10,06,53,7.00
2013,04,10,06,54,7.00
2013,04,10,06,55,7.10
2013,04,10,06,56,7.10
2013,04,10,06,57,7.10
2013,04,10,06,58,7.00
2013,04,10,06,59,7.00
2013,04,10,07,00,7.10
2013,04,10,07,01,7.10
2013,04,10,07,02,7.10
2013,04,10,07,03,7.10
2013,04,10,07,04,7.10
2013,04,10,07,05,7.10
2013,04,10,07,06,7.10
2013,04,10,07,07,7.10
2013,04,10,07,08,7.10
2013,04,10,07,09,7.10
2013,04,10,07,10,7.10
2013,04,10,07,11,7.10
2013,04,10,07,12,7.00
2013,04,10,07,13,7.00
2013,04,10,07,14,7.10
2013,04,10,07,15,7.10
2013,04,10,07,16,7.00
2013,04,10,07,17,7.00
2013,04,10,07,18,7.10
2013,04,10,07,19,7.10
2013,04,10,07,20,7.10
2013,04,10,07,21,7.10
2013,04,10,07,22,7.10
2013,04,10,07,23,7.10
2013,04,10,07,24,7.10
2013,04,10,07,25,7.10
2013,04,10,07,26,7.10
2013,04,10,07,27,7.10
2013,04,10,07,28,7.10
2013,04,10,07,29,7.10
2013,04,10,07,30,7.10
2013,04,10,07,31,7.10
2013,04,10,07,32,7.10
2013,04,10,07,33,7.10
2013,04,10,07,34,7.10
2013,04,10,07,35,7.10
2013,04,10,07,36,7.10
2013,04,10,07,37,7.10
2013,04,10,07,38,7.10
2013,04,10,07,39,7.10
2013,04,10,07,40,7.10
2013,04,10,07,41,7.10
2013,04,10,07,42,7.20
2013,04,10,07,43,7.10
2013,04,10,07,44,7.20
2013,04,10,07,45,7.20
2013,04,10,07,46,7.20
2013,04,10,07,47,7.20
2013,04,10,07,48,7.20
2013,04,10,07,49,7.20
2013,04,10,07,50,7.20
2013,04,10,07,51,7.20
2013,04,10,07,52,7.20
2013,04,10,07,53,7.20
2013,04,10,07,54,7.20
2013,04,10,07,55,7.20
2013,04,10,07,56,7.20
2013,04,10,07,57,7.20
2013,04,10,07,58,7.20
2013,04,10,07,59,7.20
2013,04,10,08,00,7.20
2013,04,10,08,01,7.20
2013,04,10,08,02,7.20
2013,04,10,08,03,7.20
2013,04,10,08,04,7.20
2013,04,10,08,05,7.20
2013,04,10,08,06,7.20
2013,04,10,08,07,7.20
2013,04,10,08,08,7.20
2013,04,10,08,09,7.20
2013,04,10,08,10,7.20
2013,04,10,08,11,7.20
2013,04,10,08,12,7.20
2013,04,10,08,13,7.20
2013,04,10,08,14,7.20
2013,04,10,08,15,7.20
2013,04,10,08,16,7.20
2013,04,10,08,17,7.20
2013,04,10,08,18,7.20
2013,04,10,08,19,7.20
2013,04,10,08,20,7.20
2013,04,10,08,21,7.20
2013,04,10,08,22,7.20
2013,04,10,08,23,7.20
2013,04,10,08,24,7.30
2013,04,10,08,25,7.30
2013,04,10,08,26,7.30
2013,04,10,08,27,7.30
2013,04,10,08,28,7.30
2013,04,10,08,29,7.30
2013,04,10,08,30,7.30
2013,04,10,08,31,7.30
2013,04,10,08,32,7.30
2013,04,10,08,33,7.30
2013,04,10,08,34,7.30
2013,04,10,08,35,7.30
2013,04,10,08,36,7.30
2013,04,10,08,37,7.40
2013,04,10,08,38,7.40
2013,04,10,08,39,7.40
2013,04,10,08,40,7.40
2013,04,10,08,41,7.40
2013,04,10,08,42,7.40
2013,04,10,08,43,7.40
2013,04,10,08,44,7.40
2013,04,10,08,45,7.40
2013,04,10,08,46,7.40
2013,04,10,08,47,7.40
2013,04,10,08,48,7.40
2013,04,10,08,49,7.40
2013,04,10,08,50,7.50
2013,04,10,08,51,7.50
2013,04,10,08,52,7.50
2013,04,10,08,53,7.50
2013,04,10,08,54,7.50
2013,04,10,08,55,7.50
2013,04,10,08,56,7.50
2013,04,10,08,57,7.50
2013,04,10,08,58,7.50
2013,04,10,08,59,7.50
2013,04,10,09,00,7.50
2013,04,10,09,01,7.60
2013,04,10,09,02,7.60
2013,04,10,09,03,7.60
2013,04,10,09,04,7.60
2013,04,10,09,05,7.60
2013,04,10,09,06,7.60
2013,04,10,09,07,7.60
2013,04,10,09,08,7.70
2013,04,10,09,09,7.70
2013,04,10,09,10,7.70
2013,04,10,09,11,7.70
2013,04,10,09,12,7.80
2013,04,10,09,13,7.80
2013,04,10,09,14,7.80
2013,04,10,09,15,7.80
2013,04,10,09,16,7.80
2013,04,10,09,17,7.80
2013,04,10,09,18,7.80
2013,04,10,09,19,7.80
2013,04,10,09,20,7.80
2013,04,10,09,21,7.90
2013,04,10,09,22,7.90
2013,04,10,09,23,7.90
2013,04,10,09,24,7.90
2013,04,10,09,25,7.90
2013,04,10,09,26,7.90
2013,04,10,09,27,7.90
2013,04,10,09,28,8.00
2013,04,10,09,29,8.00
2013,04,10,09,30,8.10
2013,04,10,09,31,8.10
2013,04,10,09,32,8.10
2013,04,10,09,33,8.10
2013,04,10,09,34,8.10
2013,04,10,09,35,8.10
2013,04,10,09,36,8.10
2013,04,10,09,37,8.10
2013,04,10,09,38,8.10
2013,04,10,09,39,8.10
2013,04,10,09,40,8.10
2013,04,10,09,41,8.10
2013,04,10,09,42,8.10
2013,04,10,09,43,8.10
2013,04,10,09,44,8.10
2013,04,10,09,45,8.20
2013,04,10,09,46,8.10
2013,04,10,09,47,8.20
2013,04,10,09,48,8.10
2013,04,10,09,49,8.10
2013,04,10,09,50,8.20
2013,04,10,09,51,8.20
2013,04,10,09,52,8.20
2013,04,10,09,53,8.20
2013,04,10,09,54,8.20
2013,04,10,09,55,8.20
2013,04,10,09,56,8.20
2013,04,10,09,57,8.20
2013,04,10,09,58,8.20
2013,04,10,09,59,8.20
2013,04,10,10,00,8.20
2013,04,10,10,01,8.20
2013,04,10,10,02,8.10
2013,04,10,10,03,8.10
2013,04,10,10,04,8.10
2013,04,10,10,05,8.10
2013,04,10,10,06,8.00
2013,04,10,10,07,8.00
2013,04,10,10,08,8.00
2013,04,10,10,09,8.00
2013,04,10,10,10,8.00
2013,04,10,10,11,8.00
2013,04,10,10,12,8.00
2013,04,10,10,13,8.00
2013,04,10,10,14,8.00
2013,04,10,10,15,8.00
2013,04,10,10,16,8.00
2013,04,10,10,17,7.90
2013,04,10,10,18,7.90
2013,04,10,10,19,7.90
2013,04,10,10,20,8.00
2013,04,10,10,21,8.00
2013,04,10,10,22,7.90
2013,04,10,10,23,7.90
2013,04,10,10,24,7.90
2013,04,10,10,25,7.90
2013,04,10,10,26,7.90
2013,04,10,10,27,7.90
2013,04,10,10,28,7.80
2013,04,10,10,29,7.80
2013,04,10,10,30,7.80
2013,04,10,10,31,7.80
2013,04,10,10,32,7.70
2013,04,10,10,33,7.70
2013,04,10,10,34,7.70
2013,04,10,10,35,7.70
2013,04,10,10,36,7.80
2013,04,10,10,37,7.80
2013,04,10,10,38,7.80
2013,04,10,10,39,7.80
2013,04,10,10,40,7.90
2013,04,10,10,41,7.90
2013,04,10,10,42,7.90
2013,04,10,10,43,7.90
2013,04,10,10,44,7.80
2013,04,10,10,45,7.80
2013,04,10,10,46,7.80
2013,04,10,10,47,7.80
2013,04,10,10,48,7.80
2013,04,10,10,49,7.80
2013,04,10,10,50,7.80
2013,04,10,10,51,7.80
2013,04,10,10,52,7.70
2013,04,10,10,53,7.70
2013,04,10,10,54,7.70
2013,04,10,10,55,7.80
2013,04,10,10,56,7.80
2013,04,10,10,57,7.80
2013,04,10,10,58,7.80
2013,04,10,10,59,7.90
2013,04,10,11,00,7.90
2013,04,10,11,01,8.00
2013,04,10,11,02,8.00
2013,04,10,11,03,8.10
2013,04,10,11,04,8.00
2013,04,10,11,05,8.00
2013,04,10,11,06,8.00
2013,04,10,11,07,8.00
2013,04,10,11,08,8.00
2013,04,10,11,09,8.10
2013,04,10,11,10,8.10
2013,04,10,11,11,8.20
2013,04,10,11,12,8.20
2013,04,10,11,13,8.30
2013,04,10,11,14,8.30
2013,04,10,11,15,8.30
2013,04,10,11,16,8.30
2013,04,10,11,17,8.30
2013,04,10,11,18,8.30
2013,04,10,11,19,8.40
2013,04,10,11,20,8.40
2013,04,10,11,21,8.40
2013,04,10,11,22,8.40
2013,04,10,11,23,8.40
2013,04,10,11,24,8.40
2013,04,10,11,25,8.50
2013,04,10,11,26,8.50
2013,04,10,11,27,8.60
2013,04,10,11,28,8.60
2013,04,10,11,29,8.70
2013,04,10,11,30,8.80
2013,04,10,11,31,8.90
2013,04,10,11,32,8.90
2013,04,10,11,33,8.90
2013,04,10,11,34,8.80
2013,04,10,11,35,8.90
2013,04,10,11,36,8.80
2013,04,10,11,37,8.80
2013,04,10,11,38,8.80
2013,04,10,11,39,8.80
2013,04,10,11,40,8.80
2013,04,10,11,41,8.80
2013,04,10,11,42,8.80
2013,04,10,11,43,8.80
2013,04,10,11,44,8.80
2013,04,10,11,45,8.80
2013,04,10,11,46,8.80
2013,04,10,11,47,8.80
2013,04,10,11,48,8.80
2013,04,10,11,49,8.90
2013,04,10,11,50,8.90
2013,04,10,11,51,8.90
2013,04,10,11,52,8.90
2013,04,10,11,53,8.90
2013,04,10,11,54,8.90
2013,04,10,11,55,8.90
2013,04,10,11,56,8.90
2013,04,10,11,57,8.90
2013,04,10,11,58,8.90
2013,04,10,11,59,8.90
2013,04,10,12,00,8.80
2013,04,10,12,01,8.80
2013,04,10,12,02,8.80
2013,04,10,12,03,8.80
2013,04,10,12,04,8.80
2013,04,10,12,05,8.70
2013,04,10,12,06,8.70
2013,04,10,12,07,8.80
2013,04,10,12,08,8.80
2013,04,10,12,09,8.80
2013,04,10,12,10,8.90
2013,04,10,12,11,8.90
2013,04,10,12,12,8.90
2013,04,10,12,13,8.90
2013,04,10,12,14,8.90
2013,04,10,12,15,8.90
2013,04,10,12,16,8.90
2013,04,10,12,17,9.00
2013,04,10,12,18,9.00
2013,04,10,12,19,9.10
2013,04,10,12,20,9.10
2013,04,10,12,21,9.20
2013,04,10,12,22,9.20
2013,04,10,12,23,9.20
2013,04,10,12,24,9.30
2013,04,10,12,25,9.30
2013,04,10,12,26,9.30
2013,04,10,12,27,9.30
2013,04,10,12,28,9.30
2013,04,10,12,29,9.30
2013,04,10,12,30,9.40
2013,04,10,12,31,9.50
2013,04,10,12,32,9.60
2013,04,10,12,33,9.70
2013,04,10,12,34,9.80
2013,04,10,12,35,9.90
2013,04,10,12,36,9.90
2013,04,10,12,37,10.00
2013,04,10,12,38,10.00
2013,04,10,12,39,10.00
2013,04,10,12,40,10.00
2013,04,10,12,41,10.10
2013,04,10,12,42,10.10
2013,04,10,12,43,10.10
2013,04,10,12,44,10.10
2013,04,10,12,45,10.10
2013,04,10,12,46,10.10
2013,04,10,12,47,10.00
2013,04,10,12,48,9.90
2013,04,10,12,49,9.80
2013,04,10,12,50,9.80
2013,04,10,12,51,9.80
2013,04,10,12,52,9.90
2013,04,10,12,53,9.90
2013,04,10,12,54,10.00
2013,04,10,12,55,10.00
2013,04,10,12,56,10.10
2013,04,10,12,57,10.00
2013,04,10,12,58,10.10
2013,04,10,12,59,10.10
2013,04,10,13,00,10.20
2013,04,10,13,01,10.20
2013,04,10,13,02,10.30
2013,04,10,13,03,10.30
2013,04,10,13,04,10.30
2013,04,10,13,05,10.40
2013,04,10,13,06,10.40
2013,04,10,13,07,10.50
2013,04,10,13,08,10.60
2013,04,10,13,09,10.60
2013,04,10,13,10,10.50
2013,04,10,13,11,10.50
2013,04,10,13,12,10.40
2013,04,10,13,13,10.40
2013,04,10,13,14,10.40
2013,04,10,13,15,10.30
2013,04,10,13,16,10.30
2013,04,10,13,17,10.20
2013,04,10,13,18,10.20
2013,04,10,13,19,10.20
2013,04,10,13,20,10.20
2013,04,10,13,21,10.10
2013,04,10,13,22,10.10
2013,04,10,13,23,10.20
2013,04,10,13,24,10.20
2013,04,10,13,25,10.30
2013,04,10,13,26,10.40
2013,04,10,13,27,10.50
2013,04,10,13,28,10.60
2013,04,10,13,29,10.60
2013,04,10,13,30,10.50
2013,04,10,13,31,10.40
2013,04,10,13,32,10.40
2013,04,10,13,33,10.40
2013,04,10,13,34,10.40
2013,04,10,13,35,10.50
2013,04,10,13,36,10.60
2013,04,10,13,37,10.60
2013,04,10,13,38,10.70
2013,04,10,13,39,10.70
2013,04,10,13,40,10.70
2013,04,10,13,41,10.80
2013,04,10,13,42,10.80
2013,04,10,13,43,10.80
2013,04,10,13,44,10.80
2013,04,10,13,45,10.80
2013,04,10,13,46,10.90
2013,04,10,13,47,10.90
2013,04,10,13,48,10.90
2013,04,10,13,49,11.00
2013,04,10,13,50,11.10
2013,04,10,13,51,11.20
2013,04,10,13,52,11.20
2013,04,10,13,53,11.20
2013,04,10,13,54,11.20
2013,04,10,13,55,11.20
2013,04,10,13,56,11.20
2013,04,10,13,57,11.20
2013,04,10,13,58,11.30
2013,04,10,13,59,11.30
2013,04,10,14,00,11.40
2013,04,10,14,01,11.30
2013,04,10,14,02,11.30
2013,04,10,14,03,11.30
2013,04,10,14,04,11.30
2013,04,10,14,05,11.40
2013,04,10,14,06,11.40
2013,04,10,14,07,11.30
2013,04,10,14,08,11.20
2013,04,10,14,09,11.20
2013,04,10,14,10,11.30
2013,04,10,14,11,11.40
2013,04,10,14,12,11.40
2013,04,10,14,13,11.40
2013,04,10,14,14,11.40
2013,04,10,14,15,11.40
2013,04,10,14,16,11.40
2013,04,10,14,17,11.30
2013,04,10,14,18,11.30
2013,04,10,14,19,11.20
2013,04,10,14,20,11.00
2013,04,10,14,21,11.00
2013,04,10,14,22,10.90
2013,04,10,14,23,10.90
2013,04,10,14,24,10.80
2013,04,10,14,25,10.80
2013,04,10,14,26,10.80
2013,04,10,14,27,10.80
2013,04,10,14,28,10.70
2013,04,10,14,29,10.70
2013,04,10,14,30,10.80
2013,04,10,14,31,10.80
2013,04,10,14,32,11.00
2013,04,10,14,33,11.10
2013,04,10,14,34,11.20
2013,04,10,14,35,11.30
2013,04,10,14,36,11.40
2013,04,10,14,37,11.40
2013,04,10,14,38,11.40
2013,04,10,14,39,11.50
2013,04,10,14,40,11.50
2013,04,10,14,41,11.40
2013,04,10,14,42,11.40
2013,04,10,14,43,11.30
2013,04,10,14,44,11.20
2013,04,10,14,45,11.10
2013,04,10,14,46,11.00
2013,04,10,14,47,10.90
2013,04,10,14,48,10.80
2013,04,10,14,49,10.80
2013,04,10,14,50,10.70
2013,04,10,14,51,10.70
2013,04,10,14,52,10.70
2013,04,10,14,53,10.70
2013,04,10,14,54,10.60
2013,04,10,14,55,10.60
2013,04,10,14,56,10.60
2013,04,10,14,57,10.60
2013,04,10,14,58,10.70
2013,04,10,14,59,10.70
2013,04,10,15,00,10.70
2013,04,10,15,01,10.70
2013,04,10,15,02,10.70
2013,04,10,15,03,10.70
2013,04,10,15,04,10.70
2013,04,10,15,05,10.70
2013,04,10,15,06,10.80
2013,04,10,15,07,10.80
2013,04,10,15,08,10.90
2013,04,10,15,09,10.90
2013,04,10,15,10,10.90
2013,04,10,15,11,10.90
2013,04,10,15,12,10.90
2013,04,10,15,13,10.90
2013,04,10,15,14,10.90
2013,04,10,15,15,10.90
2013,04,10,15,16,10.90
2013,04,10,15,17,10.90
2013,04,10,15,18,10.90
2013,04,10,15,19,10.90
2013,04,10,15,20,10.90
2013,04,10,15,21,10.90
2013,04,10,15,22,10.90
2013,04,10,15,23,10.90
2013,04,10,15,24,10.90
2013,04,10,15,25,10.90
2013,04,10,15,26,10.90
2013,04,10,15,27,10.90
2013,04,10,15,28,10.90
2013,04,10,15,29,10.90
2013,04,10,15,30,10.90
2013,04,10,15,31,10.90
2013,04,10,15,32,10.80
2013,04,10,15,33,10.80
2013,04,10,15,34,10.90
2013,04,10,15,35,10.90
2013,04,10,15,36,10.90
2013,04,10,15,37,10.90
2013,04,10,15,38,10.90
2013,04,10,15,39,10.90
2013,04,10,15,40,11.00
2013,04,10,15,41,11.10
2013,04,10,15,42,11.10
2013,04,10,15,43,11.10
2013,04,10,15,44,11.20
2013,04,10,15,45,11.20
2013,04,10,15,46,11.20
2013,04,10,15,47,11.20
2013,04,10,15,48,11.20
2013,04,10,15,49,11.20
2013,04,10,15,50,11.20
2013,04,10,15,51,11.20
2013,04,10,15,52,11.20
2013,04,10,15,53,11.20
2013,04,10,15,54,11.20
2013,04,10,15,55,11.30
2013,04,10,15,56,11.30
2013,04,10,15,57,11.30
2013,04,10,15,58,11.30
2013,04,10,15,59,11.30
2013,04,10,16,00,11.30
2013,04,10,16,01,11.30
2013,04,10,16,02,11.20
2013,04,10,16,03,11.20
2013,04,10,16,04,11.20
2013,04,10,16,05,11.20
2013,04,10,16,06,11.20
2013,04,10,16,07,11.20
2013,04,10,16,08,11.20
2013,04,10,16,09,11.30
2013,04,10,16,10,11.30
2013,04,10,16,11,11.30
2013,04,10,16,12,11.40
2013,04,10,16,13,11.50
2013,04,10,16,14,11.50
2013,04,10,16,15,11.60
2013,04,10,16,16,11.70
2013,04,10,16,17,11.70
2013,04,10,16,18,11.80
2013,04,10,16,19,11.80
2013,04,10,16,20,11.90
2013,04,10,16,21,12.00
2013,04,10,16,22,12.10
2013,04,10,16,23,12.10
2013,04,10,16,24,12.20
2013,04,10,16,25,12.20
2013,04,10,16,26,12.10
2013,04,10,16,27,12.10
2013,04,10,16,28,12.00
2013,04,10,16,29,12.00
2013,04,10,16,30,12.00
2013,04,10,16,31,12.00
2013,04,10,16,32,11.90
2013,04,10,16,33,11.90
2013,04,10,16,34,11.90
2013,04,10,16,35,11.90
2013,04,10,16,36,11.80
2013,04,10,16,37,11.80
2013,04,10,16,38,11.80
2013,04,10,16,39,11.90
2013,04,10,16,40,11.90
2013,04,10,16,41,11.90
2013,04,10,16,42,11.90
2013,04,10,16,43,12.00
2013,04,10,16,44,12.00
2013,04,10,16,45,12.00
2013,04,10,16,46,12.00
2013,04,10,16,47,12.00
2013,04,10,16,48,12.10
2013,04,10,16,49,12.10
2013,04,10,16,50,12.20
2013,04,10,16,51,12.20
2013,04,10,16,52,12.20
2013,04,10,16,53,12.30
2013,04,10,16,54,12.30
2013,04,10,16,55,12.30
2013,04,10,16,56,12.40
2013,04,10,16,57,12.40
2013,04,10,16,58,12.50
2013,04,10,16,59,12.50
2013,04,10,17,00,12.60
2013,04,10,17,01,12.60
2013,04,10,17,02,12.60
2013,04,10,17,03,12.70
2013,04,10,17,04,12.70
2013,04,10,17,05,12.80
2013,04,10,17,06,12.80
2013,04,10,17,07,12.80
2013,04,10,17,08,12.70
2013,04,10,17,09,12.60
2013,04,10,17,10,12.60
2013,04,10,17,11,12.50
2013,04,10,17,12,12.40
2013,04,10,17,13,12.40
2013,04,10,17,14,12.30
2013,04,10,17,15,12.30
2013,04,10,17,16,12.30
2013,04,10,17,17,12.30
2013,04,10,17,18,12.40
2013,04,10,17,19,12.40
2013,04,10,17,20,12.40
2013,04,10,17,21,12.40
2013,04,10,17,22,12.40
2013,04,10,17,23,12.40
2013,04,10,17,24,12.50
2013,04,10,17,25,12.50
2013,04,10,17,26,12.60
2013,04,10,17,27,12.70
2013,04,10,17,28,12.70
2013,04,10,17,29,12.70
2013,04,10,17,30,12.80
2013,04,10,17,31,12.80
2013,04,10,17,32,12.90
2013,04,10,17,33,12.90
2013,04,10,17,34,13.00
2013,04,10,17,35,13.00
2013,04,10,17,36,13.00
2013,04,10,17,37,13.00
2013,04,10,17,38,13.00
2013,04,10,17,39,12.90
2013,04,10,17,40,12.90
2013,04,10,17,41,12.90
2013,04,10,17,42,12.90
2013,04,10,17,43,12.90
2013,04,10,17,44,12.80
2013,04,10,17,45,12.80
2013,04,10,17,46,12.90
2013,04,10,17,47,13.00
2013,04,10,17,48,13.00
2013,04,10,17,49,13.10
2013,04,10,17,50,13.20
2013,04,10,17,51,13.10
2013,04,10,17,52,13.10
2013,04,10,17,53,13.10
2013,04,10,17,54,13.00